NJE511E GMMX-LIRQ

Flight info

Callsign NJE511E
Flight time N/A
Altitude 38000
Route OBOGA UG850 BERUM N860 GONZA/N0456F400 N860 BEGOX M445 SOPET M985 BCN N870 DIBER UN870 SOSUR DCT DIVKO UM984 PADKO DCT STP/N0457F410 A3 MIRSA DCT MAREL
Aircraft CL60/M-SBDE1E2E3FGHIJ1J4J5J7M3RWXYZ/LB1V1D1

Departure

Time N/A
Airport Marrakesh Menara Airport (GMMX)

Arrival

Time 2026-05-05 13:24
Airport Florence Airport, Peretola (LIRQ)
Time Latitude Longitude Altitude Speed Heading
2026-05-05 13:07 43.20683 10.47916 17184 ft 352 kts 59°
2026-05-05 13:08 43.21910 10.50790 16856 ft 349 kts 58°
2026-05-05 13:08 43.23169 10.53654 16521 ft 348 kts 58°
2026-05-05 13:08 43.24564 10.56297 16186 ft 345 kts 44°
2026-05-05 13:08 43.26466 10.58259 15833 ft 338 kts 24°
2026-05-05 13:09 43.28664 10.59271 15480 ft 330 kts
2026-05-05 13:09 43.30930 10.59302 15130 ft 320 kts 347°
2026-05-05 13:09 43.33136 10.59004 14787 ft 321 kts 357°
2026-05-05 13:09 43.35313 10.59655 14427 ft 325 kts 20°
2026-05-05 13:10 43.37176 10.61385 14058 ft 326 kts 41°
2026-05-05 13:10 43.38815 10.63558 13702 ft 323 kts 42°
2026-05-05 13:10 43.40417 10.65680 13350 ft 320 kts 43°
2026-05-05 13:10 43.42021 10.67803 12992 ft 317 kts 43°
2026-05-05 13:11 43.43622 10.69922 12632 ft 315 kts 43°
2026-05-05 13:11 43.45182 10.71989 12276 ft 312 kts 43°
2026-05-05 13:11 43.46783 10.73936 11918 ft 308 kts 33°
2026-05-05 13:11 43.48591 10.75471 11562 ft 304 kts 28°
2026-05-05 13:12 43.50403 10.76959 11201 ft 302 kts 28°
2026-05-05 13:12 43.52188 10.78435 10848 ft 299 kts 28°
2026-05-05 13:12 43.53976 10.79914 10490 ft 297 kts 28°
2026-05-05 13:12 43.55667 10.81561 10115 ft 296 kts 40°
2026-05-05 13:13 43.57075 10.83546 9715 ft 292 kts 48°
2026-05-05 13:13 43.58396 10.85686 9299 ft 289 kts 49°
2026-05-05 13:13 43.59691 10.87760 8898 ft 285 kts 48°
2026-05-05 13:13 43.60990 10.89775 8573 ft 275 kts 47°
2026-05-05 13:14 43.62215 10.91647 8576 ft 247 kts 47°
2026-05-05 13:14 43.63340 10.93363 8535 ft 242 kts 47°
2026-05-05 13:14 43.64470 10.95092 8463 ft 239 kts 47°
2026-05-05 13:14 43.65573 10.96780 8375 ft 238 kts 47°
2026-05-05 13:15 43.66692 10.98496 8082 ft 241 kts 48°
2026-05-05 13:15 43.67471 11.00513 7693 ft 236 kts 82°
2026-05-05 13:15 43.67255 11.02633 7322 ft 221 kts 122°
2026-05-05 13:15 43.66236 11.04084 6953 ft 205 kts 158°
2026-05-05 13:16 43.64894 11.04493 6592 ft 194 kts 188°
2026-05-05 13:16 43.63644 11.03914 6218 ft 188 kts 215°
2026-05-05 13:16 43.62706 11.02687 5853 ft 186 kts 229°
2026-05-05 13:16 43.61842 11.01342 5490 ft 187 kts 229°
2026-05-05 13:17 43.60972 10.99999 5115 ft 188 kts 228°
2026-05-05 13:17 43.60104 10.98661 4743 ft 188 kts 228°
2026-05-05 13:17 43.59247 10.97327 4371 ft 188 kts 230°
2026-05-05 13:17 43.58798 10.95675 3938 ft 193 kts 269°
2026-05-05 13:18 43.59398 10.94009 3476 ft 201 kts 315°
2026-05-05 13:18 43.60604 10.93045 3105 ft 202 kts 339°
2026-05-05 13:18 43.61996 10.92765 3002 ft 207 kts
2026-05-05 13:18 43.63394 10.93284 2993 ft 209 kts 30°
2026-05-05 13:19 43.64484 10.94596 3001 ft 208 kts 51°
2026-05-05 13:19 43.65369 10.96174 2997 ft 208 kts 55°
2026-05-05 13:19 43.66259 10.97772 2996 ft 209 kts 53°
2026-05-05 13:19 43.67195 10.99301 2999 ft 209 kts 50°
2026-05-05 13:20 43.68160 11.00782 2999 ft 209 kts 49°
2026-05-05 13:20 43.69157 11.02285 2996 ft 209 kts 49°
2026-05-05 13:20 43.70132 11.03766 2997 ft 208 kts 49°
2026-05-05 13:20 43.71108 11.05261 2855 ft 211 kts 49°
2026-05-05 13:21 43.72056 11.06719 2594 ft 201 kts 49°
2026-05-05 13:21 43.72969 11.08123 2350 ft 192 kts 50°
2026-05-05 13:21 43.73846 11.09470 2098 ft 184 kts 50°
2026-05-05 13:21 43.74686 11.10764 1861 ft 176 kts 50°
2026-05-05 13:22 43.75458 11.11949 1610 ft 157 kts 50°
2026-05-05 13:22 43.76137 11.12987 1479 ft 137 kts 50°
2026-05-05 13:22 43.76762 11.13947 1271 ft 131 kts 50°
2026-05-05 13:22 43.77356 11.14868 1117 ft 129 kts 50°
2026-05-05 13:23 43.77958 11.15804 927 ft 129 kts 49°
2026-05-05 13:23 43.78540 11.16706 772 ft 128 kts 49°
2026-05-05 13:23 43.79118 11.17599 599 ft 127 kts 49°
2026-05-05 13:23 43.79704 11.18497 432 ft 126 kts 50°
2026-05-05 13:24 43.80278 11.19383 258 ft 125 kts 49°
2026-05-05 13:24 43.80850 11.20266 134 ft 114 kts 49°
2026-05-05 13:24 43.81268 11.20912 137 ft 62 kts 48°
2026-05-05 13:24 43.81430 11.21159 138 ft 25 kts 48°
2026-05-05 13:25 43.81480 11.21277 138 ft 7 kts 85°
2026-05-05 13:25 43.81454 11.21356 138 ft 11 kts 152°
2026-05-05 13:25 43.81367 11.21378 139 ft 14 kts 204°
2026-05-05 13:25 43.81286 11.21262 138 ft 18 kts 229°
2026-05-05 13:26 43.81258 11.21079 138 ft 21 kts 275°
2026-05-05 13:26 43.81235 11.20866 136 ft 25 kts 227°
2026-05-05 13:26 43.81108 11.20674 135 ft 28 kts 227°
2026-05-05 13:26 43.80966 11.20456 131 ft 31 kts 231°
2026-05-05 13:27 43.80820 11.20215 131 ft 33 kts 229°
2026-05-05 13:27 43.80671 11.19988 131 ft 17 kts 226°
2026-05-05 13:27 43.80589 11.19867 132 ft 10 kts 232°
2026-05-05 13:27 43.80567 11.19770 132 ft 13 kts 317°
2026-05-05 13:28 43.80645 11.19664 131 ft 17 kts 322°
2026-05-05 13:28 43.80696 11.19585 131 ft 9 kts 268°
2026-05-05 13:28 43.80694 11.19522 131 ft 0 kts 269°